When you browse on this site, cookies collect data to enhance your experience and personalize the content and advertising you see.
Visit our Privacy Policy to learn more. By continuing to use the site, you agree to this use of cookies and data.
  • In Austria
  • List of Countries
  • For 7 days
  • Water Temperature
  • Satellite Maps
  • Weather Map
  • News
  • Weather Widgets
  • user-avatar
    Login

    Hourly Weather Ondjiwa

    Today, 23 April, Tuesday

    Time Temperature Precipitation Wind Pressure Humidity
    00:00 +26°C° 0 mm 2 mps 667 mmHg 55%
    01:00 +26°C° 0 mm 2 mps 667 mmHg 56%
    02:00 +25°C° 0 mm 1 mps 667 mmHg 58%
    03:00 +25°C° 0 mm 1 mps 667 mmHg 60%
    04:00 +24°C° 0 mm 1 mps 666 mmHg 61%
    05:00 +24°C° 0 mm 1 mps 667 mmHg 63%
    06:00 +24°C° 0 mm 1 mps 667 mmHg 64%
    07:00 +24°C° 0 mm 1 mps 667 mmHg 66%
    08:00 +25°C° 0 mm 1 mps 668 mmHg 61%
    09:00 +26°C° 0 mm 1 mps 668 mmHg 56%
    10:00 +28°C° 0 mm 1 mps 668 mmHg 51%
    11:00 +30°C° 0 mm 1 mps 668 mmHg 44%
    12:00 +33°C° 0 mm 1 mps 668 mmHg 36%
    13:00 +36°C° 0 mm 1 mps 668 mmHg 29%
    14:00 +35°C° 0 mm 1 mps 668 mmHg 29%
    15:00 +35°C° 0 mm 1 mps 667 mmHg 28%
    16:00 +34°C° 0 mm 1 mps 667 mmHg 28%
    17:00 +33°C° 0 mm 1 mps 667 mmHg 31%
    18:00 +31°C° 0 mm 1 mps 667 mmHg 34%
    19:00 +30°C° 0 mm 1 mps 667 mmHg 36%
    20:00 +29°C° 0.1 mm 1 mps 667 mmHg 40%
    21:00 +27°C° 0.1 mm 2 mps 667 mmHg 43%
    22:00 +26°C° 0.1 mm 2 mps 667 mmHg 47%
    23:00 +26°C° 0 mm 2 mps 667 mmHg 49%

    Tomorrow, 24 April, Wednesday

    Time Temperature Precipitation Wind Pressure Humidity
    00:00 +25°C° 0 mm 2 mps 667 mmHg 50%
    01:00 +25°C° 0 mm 2 mps 667 mmHg 52%
    02:00 +25°C° 0 mm 2 mps 667 mmHg 51%
    03:00 +25°C° 0 mm 2 mps 667 mmHg 50%
    04:00 +25°C° 0 mm 2 mps 667 mmHg 49%
    05:00 +25°C° 0 mm 2 mps 668 mmHg 47%
    06:00 +25°C° 0 mm 1 mps 668 mmHg 44%
    07:00 +25°C° 0 mm 1 mps 669 mmHg 42%
    08:00 +27°C° 0 mm 1 mps 669 mmHg 39%
    09:00 +29°C° 0 mm 2 mps 670 mmHg 37%
    10:00 +32°C° 0 mm 2 mps 670 mmHg 34%
    11:00 +34°C° 0 mm 2 mps 670 mmHg 32%
    12:00 +34°C° 0 mm 1 mps 669 mmHg 30%
    13:00 +35°C° 0 mm 1 mps 668 mmHg 28%
    14:00 +35°C° 0 mm 1 mps 668 mmHg 29%
    15:00 +34°C° 0 mm 1 mps 667 mmHg 29%
    16:00 +32°C° 0 mm 0 mps 667 mmHg 29%
    17:00 +31°C° 0 mm 0 mps 667 mmHg 31%
    18:00 +29°C° 0 mm 0 mps 667 mmHg 33%
    19:00 +30°C° 0 mm 1 mps 667 mmHg 36%
    20:00 +29°C° 0 mm 1 mps 668 mmHg 38%
    21:00 +28°C° 0 mm 1 mps 668 mmHg 40%
    22:00 +27°C° 0 mm 2 mps 669 mmHg 42%
    23:00 +27°C° 0 mm 2 mps 668 mmHg 44%

    Day after tomorrow, 25 April, Thursday

    Time Temperature Precipitation Wind Pressure Humidity
    00:00 +26°C° 0 mm 2 mps 668 mmHg 46%
    01:00 +25°C° 0 mm 3 mps 668 mmHg 49%
    02:00 +25°C° 0 mm 2 mps 668 mmHg 52%
    03:00 +24°C° 0 mm 2 mps 668 mmHg 54%
    04:00 +23°C° 0 mm 2 mps 667 mmHg 57%
    05:00 +23°C° 0 mm 1 mps 668 mmHg 57%
    06:00 +23°C° 0 mm 1 mps 668 mmHg 57%
    07:00 +24°C° 0 mm 1 mps 669 mmHg 57%
    08:00 +26°C° 0 mm 2 mps 670 mmHg 50%
    09:00 +29°C° 0 mm 3 mps 670 mmHg 43%
    10:00 +33°C° 0 mm 3 mps 671 mmHg 36%
    11:00 +34°C° 0 mm 3 mps 670 mmHg 33%
    12:00 +35°C° 0 mm 3 mps 669 mmHg 30%
    13:00 +36°C° 0 mm 2 mps 669 mmHg 26%
    14:00 +36°C° 0 mm 2 mps 668 mmHg 27%
    15:00 +35°C° 0 mm 2 mps 667 mmHg 28%
    16:00 +34°C° 0 mm 2 mps 667 mmHg 29%
    17:00 +32°C° 0 mm 2 mps 667 mmHg 32%
    18:00 +30°C° 0 mm 2 mps 667 mmHg 35%
    19:00 +29°C° 0 mm 2 mps 667 mmHg 38%
    20:00 +28°C° 0 mm 3 mps 667 mmHg 41%
    21:00 +28°C° 0 mm 3 mps 667 mmHg 43%
    22:00 +27°C° 0 mm 3 mps 668 mmHg 46%
    23:00 +26°C° 0 mm 3 mps 667 mmHg 47%

    26 April, Friday

    Time Temperature Precipitation Wind Pressure Humidity
    00:00 +26°C° 0 mm 3 mps 667 mmHg 49%
    01:00 +25°C° 0 mm 2 mps 667 mmHg 50%
    02:00 +24°C° 0 mm 2 mps 666 mmHg 52%
    03:00 +23°C° 0 mm 2 mps 666 mmHg 55%
    04:00 +21°C° 0 mm 2 mps 666 mmHg 58%
    05:00 +23°C° 0 mm 2 mps 667 mmHg 57%
    06:00 +23°C° 0 mm 1 mps 667 mmHg 57%
    07:00 +23°C° 0 mm 1 mps 668 mmHg 57%
    08:00 +26°C° 0 mm 1 mps 669 mmHg 49%
    09:00 +29°C° 0 mm 2 mps 669 mmHg 42%
    10:00 +32°C° 0 mm 2 mps 670 mmHg 34%
    11:00 +34°C° 0 mm 2 mps 669 mmHg 31%
    12:00 +35°C° 0 mm 2 mps 668 mmHg 28%
    13:00 +35°C° 0 mm 2 mps 668 mmHg 25%
    14:00 +35°C° 0 mm 2 mps 667 mmHg 25%
    15:00 +35°C° 0 mm 2 mps 667 mmHg 25%
    16:00 +36°C° 0 mm 2 mps 667 mmHg 25%
    17:00 +34°C° 0 mm 2 mps 667 mmHg 28%
    18:00 +31°C° 0 mm 2 mps 667 mmHg 32%
    19:00 +29°C° 0 mm 2 mps 667 mmHg 36%
    20:00 +28°C° 0 mm 2 mps 667 mmHg 37%
    21:00 +28°C° 0 mm 2 mps 667 mmHg 38%
    22:00 +27°C° 0 mm 2 mps 667 mmHg 39%
    23:00 +27°C° 0 mm 2 mps 667 mmHg 40%

    27 April, Saturday

    Time Temperature Precipitation Wind Pressure Humidity
    00:00 +27°C° 0 mm 2 mps 667 mmHg 41%
    01:00 +27°C° 0 mm 2 mps 667 mmHg 41%
    02:00 +25°C° 0 mm 2 mps 667 mmHg 46%
    03:00 +24°C° 0 mm 2 mps 666 mmHg 50%
    04:00 +23°C° 0 mm 1 mps 666 mmHg 55%
    05:00 +23°C° 0 mm 1 mps 667 mmHg 56%
    06:00 +24°C° 0 mm 2 mps 667 mmHg 57%
    07:00 +24°C° 0 mm 2 mps 668 mmHg 58%
    08:00 +26°C° 0 mm 2 mps 668 mmHg 51%
    09:00 +29°C° 0 mm 2 mps 669 mmHg 43%
    10:00 +32°C° 0 mm 2 mps 670 mmHg 36%
    11:00 +34°C° 0 mm 2 mps 669 mmHg 32%
    12:00 +35°C° 0 mm 2 mps 669 mmHg 28%
    13:00 +36°C° 0 mm 3 mps 668 mmHg 25%
    14:00 +36°C° 0 mm 2 mps 668 mmHg 25%
    15:00 +35°C° 0 mm 2 mps 667 mmHg 26%
    16:00 +34°C° 0 mm 2 mps 667 mmHg 27%
    17:00 +32°C° 0 mm 1 mps 667 mmHg 30%
    18:00 +30°C° 0 mm 1 mps 667 mmHg 34%
    19:00 +28°C° 0 mm 1 mps 667 mmHg 37%
    20:00 +27°C° 0 mm 1 mps 667 mmHg 38%
    21:00 +26°C° 0 mm 1 mps 667 mmHg 40%
    22:00 +25°C° 0 mm 1 mps 667 mmHg 41%
    23:00 +25°C° 0 mm 1 mps 667 mmHg 42%

    28 April, Sunday

    Time Temperature Precipitation Wind Pressure Humidity
    00:00 +24°C° 0 mm 1 mps 667 mmHg 43%
    01:00 +24°C° 0 mm 1 mps 666 mmHg 44%
    02:00 +23°C° 0 mm 1 mps 666 mmHg 45%
    03:00 +23°C° 0 mm 1 mps 666 mmHg 46%
    04:00 +22°C° 0 mm 1 mps 666 mmHg 47%
    05:00 +23°C° 0 mm 1 mps 667 mmHg 46%
    06:00 +24°C° 0 mm 1 mps 668 mmHg 45%
    07:00 +24°C° 0 mm 1 mps 669 mmHg 43%
    08:00 +27°C° 0 mm 2 mps 669 mmHg 38%
    09:00 +30°C° 0 mm 2 mps 670 mmHg 33%
    10:00 +34°C° 0 mm 3 mps 670 mmHg 27%
    11:00 +35°C° 0 mm 3 mps 670 mmHg 25%
    12:00 +35°C° 0 mm 3 mps 669 mmHg 22%
    13:00 +36°C° 0 mm 3 mps 668 mmHg 19%
    14:00 +36°C° 0 mm 3 mps 668 mmHg 20%
    15:00 +35°C° 0 mm 3 mps 668 mmHg 20%
    16:00 +35°C° 0 mm 3 mps 668 mmHg 21%
    17:00 +33°C° 0 mm 3 mps 668 mmHg 24%
    18:00 +30°C° 0 mm 3 mps 668 mmHg 27%
    19:00 +28°C° 0 mm 2 mps 668 mmHg 30%
    20:00 +27°C° 0 mm 2 mps 668 mmHg 32%
    21:00 +27°C° 0 mm 2 mps 668 mmHg 33%
    22:00 +26°C° 0 mm 2 mps 668 mmHg 35%
    23:00 +25°C° 0 mm 3 mps 668 mmHg 37%
    Show more